User: anonymous   Login
Location: Unspecified
(0.0000°N, 0.0000°E)
Time: 03:25:11
(UTC+00:00)
Language:

ONEWEB-0399 - Orbit

View from above orbital plane
View from above orbital plane
View from above satellite
View from above satellite

Ground track
Ground track

The orbit is defined by the following mean orbital elements,

1 50479U          26145.61370823 +.00000000 +00000-0 -14358-2 0 00000
2 50479  87.8917  25.5584 0002294  83.8256 276.3133 13.11415714    08
Epoch (UTC): 25 May 2026 14:43:44
Eccentricity: 0.0002294
inclination: 87.8917°
perigee height: 1216 km
apogee height: 1219 km
right ascension of ascending node: 25.5584°
argument of perigee: 83.8256°
revolutions per day: 13.11415714
mean anomaly at epoch: 276.3133°

The dashed part of the orbit path shows where the satellite is in the earth's shadow,  

DLR